Date,Time,Wetness (Wet Dry or Ice),Wind Speed (m/s),Temperature (C),Humidity (%),Pressure (mb),Radiation (W/m^2)
2017-04-22,02:30:00,DRY,4.67,5.03,81.3,773.00,1.4
2017-04-22,02:35:00,DRY,4.30,5.10,79.5,773.00,1.4
2017-04-22,02:40:00,DRY,3.77,5.13,78.0,773.00,1.2
2017-04-22,02:45:00,DRY,5.00,5.10,79.0,773.00,1.1
2017-04-22,02:50:00,DRY,3.80,5.20,79.0,773.00,1.7
2017-04-22,02:55:00,DRY,4.55,5.10,78.0,773.00,1.6
2017-04-22,03:00:00,DRY,4.17,5.17,77.7,773.00,2.5
2017-04-22,03:05:00,DRY,4.75,5.10,77.0,773.00,1.6
2017-04-22,03:10:00,DRY,4.33,5.17,74.3,773.00,1.3
2017-04-22,03:15:00,DRY,4.45,5.45,71.5,773.00,1.1
2017-04-22,03:20:00,DRY,3.77,5.23,75.3,773.00,1.4
2017-04-22,03:25:00,DRY,4.50,5.20,74.0,773.00,1.5
2017-04-22,03:30:00,DRY,4.33,5.37,70.3,773.00,1.5
2017-04-22,03:35:00,DRY,4.70,5.45,67.0,773.00,1.5
2017-04-22,03:40:00,DRY,3.90,5.40,71.0,773.00,1.3
2017-04-22,03:45:00,DRY,4.00,5.40,68.0,773.00,1.2
2017-04-22,03:50:00,DRY,4.93,5.20,72.7,773.00,1.1
2017-04-22,03:55:00,DRY,5.05,5.15,71.5,773.00,1.0
2017-04-22,04:00:00,DRY,4.93,5.17,68.0,773.00,1.0
2017-04-22,04:05:00,DRY,4.50,5.25,67.5,773.00,1.1
2017-04-22,04:10:00,DRY,5.07,5.20,66.0,772.67,1.2
2017-04-22,04:15:00,DRY,4.15,5.20,65.5,773.00,1.3
2017-04-22,04:20:00,DRY,4.63,5.23,65.0,773.00,1.4
2017-04-22,04:25:00,DRY,4.30,5.35,65.0,773.00,1.6
2017-04-22,04:30:00,DRY,3.77,5.30,64.3,773.00,1.3
2017-04-22,04:35:00,DRY,3.65,5.30,65.0,773.00,1.2
2017-04-22,04:40:00,DRY,3.27,5.33,66.0,773.00,1.3
2017-04-22,04:45:00,DRY,3.35,5.30,68.0,773.00,0.9
2017-04-22,04:50:00,DRY,3.47,5.30,67.3,773.00,1.2
2017-04-22,04:55:00,DRY,3.90,5.25,67.0,773.00,1.2
2017-04-22,05:00:00,DRY,4.07,5.33,66.7,773.00,2.3
2017-04-22,05:05:00,DRY,3.70,5.25,67.0,773.00,1.7
2017-04-22,05:10:00,DRY,3.77,5.33,67.7,773.00,1.5
2017-04-22,05:15:00,DRY,4.35,5.40,67.0,773.00,1.1
2017-04-22,05:20:00,DRY,4.20,5.40,67.0,773.00,1.3
2017-04-22,05:25:00,DRY,4.10,5.35,67.0,773.00,1.2
2017-04-22,05:30:00,DRY,3.30,5.37,66.3,773.00,1.4
2017-04-22,05:35:00,DRY,3.20,5.35,65.5,773.00,1.2
2017-04-22,05:40:00,DRY,3.43,5.43,66.0,773.00,1.2
2017-04-22,05:45:00,DRY,3.25,5.40,65.0,773.00,1.1
2017-04-22,05:50:00,DRY,3.10,5.40,65.7,773.00,1.5
2017-04-22,05:55:00,DRY,2.90,5.50,65.0,773.00,1.9
2017-04-22,06:00:00,DRY,2.67,5.53,64.0,773.00,1.1
2017-04-22,06:05:00,DRY,3.10,5.60,63.0,773.00,1.8
2017-04-22,06:10:00,DRY,3.43,5.70,62.3,773.00,1.1
2017-04-22,06:15:00,DRY,3.80,5.75,61.5,773.00,1.1
2017-04-22,06:20:00,DRY,3.53,5.87,61.0,773.00,1.3
2017-04-22,06:25:00,DRY,3.90,6.00,60.0,773.00,1.9
2017-04-22,06:30:00,DRY,3.00,5.73,61.7,773.00,3.6
2017-04-22,06:35:00,DRY,3.15,5.35,65.0,773.00,5.5
2017-04-22,06:40:00,DRY,2.87,5.37,64.7,773.00,7.3
2017-04-22,06:45:00,DRY,3.20,5.25,65.0,773.00,14.4
2017-04-22,06:50:00,DRY,3.23,5.20,66.0,773.00,29.9
2017-04-22,06:55:00,DRY,4.00,5.30,66.0,773.00,33.0
2017-04-22,07:00:00,DRY,3.47,5.37,66.0,773.00,60.8
2017-04-22,07:05:00,DRY,3.75,5.35,66.0,773.00,50.1
2017-04-22,07:10:00,DRY,3.70,5.30,66.0,773.00,37.8
2017-04-22,07:15:00,DRY,3.35,5.40,66.0,773.00,72.6
2017-04-22,07:20:00,DRY,3.80,5.63,64.7,773.00,129.2
2017-04-22,07:25:00,DRY,4.00,5.95,63.0,773.00,161.1
2017-04-22,07:30:00,DRY,4.03,6.17,62.3,773.33,192.3
2017-04-22,07:35:00,DRY,2.70,6.40,62.0,774.00,211.6
2017-04-22,07:40:00,DRY,3.50,6.57,59.7,773.67,232.6
2017-04-22,07:45:00,DRY,3.75,6.70,59.5,773.50,253.8
2017-04-22,07:50:00,DRY,4.07,6.87,57.3,773.33,275.6
2017-04-22,07:55:00,DRY,4.20,6.85,58.0,773.00,296.6
2017-04-22,08:00:00,DRY,4.27,7.03,58.7,773.00,317.8
2017-04-22,08:05:00,DRY,4.55,7.05,59.5,773.00,338.1
2017-04-22,08:10:00,DRY,4.87,7.13,59.7,773.00,359.0
2017-04-22,08:15:00,DRY,4.45,7.30,58.0,773.00,380.1
2017-04-22,08:20:00,DRY,4.50,7.40,57.7,773.00,400.4
2017-04-22,08:25:00,DRY,4.10,7.70,57.0,773.00,420.9
2017-04-22,08:30:00,DRY,3.60,7.50,57.0,773.00,441.5
2017-04-22,08:35:00,DRY,4.85,7.70,56.0,773.00,462.1
2017-04-22,08:40:00,DRY,4.00,7.57,56.0,773.33,482.3
2017-04-22,08:45:00,DRY,3.55,7.70,56.0,773.00,501.6
2017-04-22,08:50:00,DRY,4.03,7.60,56.7,773.00,521.1
2017-04-22,08:55:00,DRY,4.30,7.80,56.0,773.00,541.0
2017-04-22,09:00:00,DRY,3.97,7.80,57.0,773.00,561.4
2017-04-22,09:05:00,DRY,3.40,7.85,58.0,773.50,580.9
2017-04-22,09:10:00,DRY,3.23,7.87,58.3,773.33,599.9
2017-04-22,09:15:00,DRY,3.10,7.45,56.5,774.00,619.1
2017-04-22,09:20:00,DRY,2.73,7.93,53.0,773.67,637.1
2017-04-22,09:25:00,DRY,2.60,8.65,51.5,774.00,656.3
2017-04-22,09:30:00,DRY,3.17,8.50,50.0,773.67,672.2
2017-04-22,09:35:00,DRY,3.30,8.75,49.5,774.00,680.2
2017-04-22,09:40:00,DRY,3.33,8.40,51.7,773.67,696.0
2017-04-22,09:45:00,DRY,4.00,8.35,53.5,774.00,707.6
2017-04-22,09:50:00,DRY,3.60,8.50,50.3,773.67,719.6
2017-04-22,09:55:00,DRY,4.70,9.05,46.5,774.00,739.8
2017-04-22,10:00:00,DRY,4.40,8.97,48.3,774.00,770.4
2017-04-22,10:05:00,DRY,3.95,8.75,52.0,773.50,790.0
2017-04-22,10:10:00,DRY,3.37,9.13,56.0,774.00,803.0
2017-04-22,10:15:00,DRY,4.35,9.00,55.0,774.00,815.2
2017-04-22,10:20:00,DRY,3.80,8.73,63.7,774.00,842.5
2017-04-22,10:25:00,DRY,4.50,8.40,66.5,774.00,824.8
2017-04-22,10:30:00,DRY,3.93,8.37,62.7,774.00,850.0
2017-04-22,10:35:00,DRY,3.60,8.50,67.5,774.00,872.2
2017-04-22,10:40:00,DRY,4.33,8.70,68.3,774.00,885.4
2017-04-22,10:45:00,DRY,4.85,8.55,69.0,774.00,871.5
2017-04-22,10:50:00,DRY,4.83,9.00,65.3,774.00,899.3
2017-04-22,10:55:00,DRY,3.80,8.50,64.5,774.00,896.5
2017-04-22,11:00:00,DRY,4.50,8.77,67.7,774.00,918.6
2017-04-22,11:05:00,DRY,4.65,8.75,63.5,774.00,953.9
2017-04-22,11:10:00,DRY,3.93,9.17,59.0,774.00,961.8
2017-04-22,11:15:00,DRY,4.10,8.65,64.5,774.00,960.5
2017-04-22,11:20:00,DRY,4.90,9.40,63.3,774.00,962.9
2017-04-22,11:25:00,DRY,4.35,9.00,60.0,774.00,969.4
2017-04-22,11:30:00,DRY,4.50,8.77,63.7,774.00,982.8
2017-04-22,11:35:00,DRY,4.40,8.60,64.5,774.00,997.4
2017-04-22,11:40:00,DRY,4.83,8.60,67.3,774.00,1013.7
2017-04-22,11:45:00,DRY,4.60,8.80,63.0,774.00,1006.5
2017-04-22,11:50:00,DRY,4.77,8.80,63.3,774.00,1015.0
2017-04-22,11:55:00,DRY,2.60,9.35,64.5,774.00,1026.9
2017-04-22,12:00:00,DRY,3.73,9.57,60.7,774.00,1039.2
2017-04-22,12:05:00,DRY,4.90,9.55,60.5,774.00,1041.0
2017-04-22,12:10:00,DRY,5.03,9.60,63.0,774.00,1050.8
2017-04-22,12:15:00,DRY,4.60,9.35,69.0,774.00,1046.2
2017-04-22,12:20:00,DRY,4.13,9.67,67.0,774.00,1049.5
2017-04-22,12:25:00,DRY,3.80,9.45,67.5,774.00,1039.7
2017-04-22,12:30:00,DRY,4.20,9.50,65.0,774.00,1065.0
2017-04-22,12:35:00,DRY,3.65,9.80,65.5,774.00,1071.0
2017-04-22,12:40:00,DRY,5.80,9.33,68.7,774.00,1061.7
2017-04-22,12:45:00,DRY,6.30,9.75,68.0,774.00,1070.2
2017-04-22,12:50:00,DRY,5.67,9.40,71.0,773.00,1048.1
2017-04-22,12:55:00,DRY,5.05,9.60,65.5,773.50,996.6
2017-04-22,13:00:00,DRY,4.87,9.53,70.3,773.67,1037.6
2017-04-22,13:05:00,DRY,5.00,8.85,72.0,773.50,1010.8
2017-04-22,13:10:00,DRY,4.73,9.30,69.3,773.33,1059.2
2017-04-22,13:15:00,DRY,4.95,9.75,64.0,773.00,1089.7
2017-04-22,13:20:00,DRY,5.17,9.43,64.3,773.33,1093.1
2017-04-22,13:25:00,DRY,4.40,9.00,66.5,773.00,1089.8
2017-04-22,13:30:00,DRY,5.50,9.05,65.5,773.50,1085.3
2017-04-22,13:35:00,DRY,6.50,8.70,63.0,774.00,1085.4
2017-04-22,13:40:00,DRY,5.97,9.17,65.0,773.67,1043.1
2017-04-22,13:45:00,DRY,4.75,9.15,64.0,773.00,1068.3
2017-04-22,13:50:00,DRY,5.17,9.03,62.3,773.00,1059.7
2017-04-22,13:55:00,DRY,5.15,9.30,62.0,773.00,1067.3
2017-04-22,14:00:00,DRY,5.00,9.07,63.7,773.00,850.5
2017-04-22,14:05:00,DRY,5.30,8.65,61.5,773.00,1045.8
2017-04-22,14:10:00,DRY,5.80,9.07,63.3,773.33,1043.9
2017-04-22,14:15:00,DRY,4.75,9.00,62.0,773.50,1037.1
2017-04-22,14:20:00,DRY,6.20,8.63,66.0,773.00,1027.6
2017-04-22,14:25:00,DRY,5.60,9.35,59.5,773.00,1020.0
2017-04-22,14:30:00,DRY,5.57,9.13,61.7,773.00,1012.8
2017-04-22,14:35:00,DRY,6.30,9.35,61.5,773.00,1004.6
2017-04-22,14:40:00,DRY,5.00,9.40,61.7,773.00,996.8
2017-04-22,14:45:00,DRY,5.10,9.55,61.0,773.00,989.4
2017-04-22,14:50:00,DRY,4.03,9.70,62.7,773.00,980.3
2017-04-22,14:55:00,DRY,4.80,9.60,67.0,773.00,970.4
2017-04-22,15:00:00,DRY,4.63,9.37,66.3,773.00,961.5
2017-04-22,15:05:00,DRY,4.35,9.30,59.0,773.00,951.1
2017-04-22,15:10:00,DRY,4.50,9.27,66.3,773.00,942.5
2017-04-22,15:15:00,DRY,4.75,9.15,66.0,773.00,929.9
2017-04-22,15:20:00,DRY,4.33,9.07,66.7,773.00,917.3
2017-04-22,15:25:00,DRY,4.90,9.45,67.5,773.00,904.9
2017-04-22,15:30:00,DRY,3.93,9.37,67.3,773.00,893.1
2017-04-22,15:35:00,DRY,4.35,9.40,66.5,773.00,880.2
2017-04-22,15:40:00,DRY,4.37,9.20,65.0,773.00,867.7
2017-04-22,15:45:00,DRY,4.90,9.70,63.0,773.00,855.2
2017-04-22,15:50:00,DRY,5.27,9.30,65.7,773.00,839.3
2017-04-22,15:55:00,DRY,3.75,9.25,65.0,773.00,826.9
2017-04-22,16:00:00,DRY,4.67,9.57,62.3,773.00,812.2
2017-04-22,16:05:00,DRY,4.05,10.15,63.0,773.00,795.4
2017-04-22,16:10:00,DRY,4.17,9.73,61.3,773.00,780.8
2017-04-22,16:15:00,DRY,3.85,9.40,61.0,773.00,765.3
2017-04-22,16:20:00,DRY,5.00,9.53,62.3,773.00,749.9
2017-04-22,16:25:00,DRY,4.05,9.10,61.0,773.00,734.2
2017-04-22,16:30:00,DRY,4.67,9.30,54.3,773.00,718.5
2017-04-22,16:35:00,DRY,5.15,9.40,56.0,773.00,709.0
2017-04-22,16:40:00,DRY,4.10,9.53,61.0,773.00,704.3
2017-04-22,16:45:00,DRY,4.50,9.20,58.0,773.00,678.5
2017-04-22,16:50:00,DRY,4.20,9.37,59.3,773.00,552.7
2017-04-22,16:55:00,DRY,3.60,9.05,54.0,773.00,520.8
2017-04-22,17:00:00,DRY,4.07,8.97,61.0,773.00,496.0
2017-04-22,17:05:00,DRY,3.45,9.20,55.5,773.00,667.2
2017-04-22,17:10:00,DRY,4.00,9.27,54.0,773.00,620.9
2017-04-22,17:15:00,DRY,3.15,9.30,50.0,773.00,520.9
2017-04-22,17:20:00,DRY,4.23,9.10,57.0,773.00,559.7
2017-04-22,17:25:00,DRY,4.00,9.20,50.0,773.00,457.9
2017-04-22,17:30:00,DRY,4.27,9.17,49.3,773.00,492.8
2017-04-22,17:35:00,DRY,4.50,9.30,49.0,773.00,450.4
2017-04-22,17:40:00,DRY,4.77,9.17,49.7,773.00,441.4
2017-04-22,17:45:00,DRY,4.10,9.00,51.5,773.00,407.7
2017-04-22,17:50:00,DRY,3.97,9.33,47.7,773.00,383.8
2017-04-22,17:55:00,DRY,3.55,9.05,49.0,773.00,403.4
2017-04-22,18:00:00,DRY,4.53,9.30,49.3,773.00,376.1
2017-04-22,18:05:00,DRY,4.65,9.00,49.5,773.00,331.9
2017-04-22,18:10:00,DRY,4.27,8.90,50.7,773.00,332.5
2017-04-22,18:15:00,DRY,4.20,8.75,51.0,773.00,255.0
2017-04-22,18:20:00,DRY,4.40,8.70,50.3,773.00,263.3
2017-04-22,18:25:00,DRY,3.60,8.40,51.0,773.00,221.9
2017-04-22,18:30:00,DRY,4.50,8.37,51.0,773.00,160.4
2017-04-22,18:35:00,DRY,4.15,8.10,53.0,773.00,139.9
2017-04-22,18:40:00,DRY,3.27,7.80,53.3,773.00,95.3
2017-04-22,18:45:00,DRY,4.55,8.00,48.0,773.00,96.9
2017-04-22,18:50:00,DRY,4.10,8.07,49.7,773.00,85.9
2017-04-22,18:55:00,DRY,4.45,7.85,50.0,773.00,67.1
2017-04-22,19:00:00,DRY,4.13,7.50,52.7,773.00,51.0
2017-04-22,19:05:00,DRY,3.90,7.25,53.0,773.00,43.6
2017-04-22,19:10:00,DRY,4.47,7.20,53.0,773.00,39.4
2017-04-22,19:15:00,DRY,5.05,7.15,53.0,773.00,35.2
2017-04-22,19:20:00,DRY,4.57,7.07,54.7,773.00,28.3
2017-04-22,19:25:00,DRY,4.00,7.05,53.5,773.00,20.9
2017-04-22,19:30:00,DRY,5.33,7.13,49.7,773.00,14.8
2017-04-22,19:35:00,DRY,5.40,6.95,55.0,773.00,9.8
2017-04-22,19:40:00,DRY,4.90,6.83,52.3,773.00,5.7
2017-04-22,19:45:00,DRY,4.30,6.75,52.5,773.00,4.6
2017-04-22,19:50:00,DRY,4.53,7.00,48.3,773.00,4.2
2017-04-22,19:55:00,DRY,5.20,6.90,50.5,773.00,1.9
2017-04-22,20:00:00,DRY,4.67,6.80,50.3,773.33,1.4
2017-04-22,20:05:00,DRY,5.40,6.80,49.0,773.00,1.1
2017-04-22,20:10:00,DRY,5.17,6.70,51.3,774.00,1.2
2017-04-22,20:15:00,DRY,5.60,6.75,49.5,773.00,1.2
2017-04-22,20:20:00,DRY,5.13,6.67,51.0,774.00,1.1
2017-04-22,20:25:00,DRY,5.70,6.55,53.0,773.50,1.2
2017-04-22,20:30:00,DRY,5.07,6.50,54.7,774.00,1.3
2017-04-22,20:35:00,DRY,5.80,6.45,55.5,774.00,1.1
2017-04-22,20:40:00,DRY,4.07,6.40,55.3,774.00,1.0
2017-04-22,20:45:00,DRY,5.10,6.45,54.0,774.00,1.2
2017-04-22,20:50:00,DRY,5.57,6.37,57.3,774.00,1.2
2017-04-22,20:55:00,DRY,5.80,6.30,57.5,774.00,1.1
2017-04-22,21:00:00,DRY,5.67,6.37,55.0,774.00,1.3
2017-04-22,21:05:00,DRY,5.25,6.45,54.0,774.00,1.1
2017-04-22,21:10:00,DRY,5.57,6.37,54.7,774.00,1.2
2017-04-22,21:15:00,DRY,5.30,6.25,56.0,774.00,1.4
2017-04-22,21:20:00,DRY,6.10,6.30,55.3,774.00,1.0
2017-04-22,21:25:00,DRY,5.20,6.25,55.5,774.00,1.4
2017-04-22,21:30:00,DRY,4.20,6.17,56.0,774.00,1.7
2017-04-22,21:35:00,DRY,5.15,6.15,57.5,774.00,1.4
2017-04-22,21:40:00,DRY,4.53,5.93,59.3,774.00,1.3
2017-04-22,21:45:00,DRY,4.85,6.05,58.0,774.00,1.1
2017-04-22,21:50:00,DRY,5.53,6.13,57.7,774.00,1.2
2017-04-22,21:55:00,DRY,5.00,5.90,59.0,774.00,1.2
2017-04-22,22:00:00,DRY,5.33,5.83,62.7,774.00,1.1
2017-04-22,22:05:00,DRY,5.40,5.80,64.0,774.00,1.1
2017-04-22,22:10:00,DRY,5.30,5.67,65.3,774.00,1.2
2017-04-22,22:15:00,DRY,5.65,5.55,66.5,774.00,1.4
2017-04-22,22:20:00,DRY,4.53,5.50,66.7,774.00,0.8
2017-04-22,22:25:00,DRY,5.90,5.65,65.5,774.00,0.5
2017-04-22,22:30:00,DRY,5.00,5.67,66.0,774.00,1.1
2017-04-22,22:35:00,DRY,4.60,5.55,66.0,774.00,1.2
2017-04-22,22:40:00,DRY,5.87,5.67,64.3,774.00,1.1
2017-04-22,22:45:00,DRY,5.35,5.65,64.5,774.00,1.2
2017-04-22,22:50:00,DRY,5.50,5.60,65.0,774.00,1.1
2017-04-22,22:55:00,DRY,5.25,5.60,64.5,774.00,0.8
2017-04-22,23:00:00,DRY,6.50,5.63,66.7,774.00,1.0
2017-04-22,23:05:00,DRY,5.60,5.45,67.5,774.00,1.2
2017-04-22,23:10:00,DRY,5.97,5.50,68.0,774.00,1.0
2017-04-22,23:15:00,DRY,5.45,5.55,68.0,774.00,0.8
2017-04-22,23:20:00,DRY,5.97,5.37,67.7,774.00,1.3
2017-04-22,23:25:00,DRY,7.30,5.30,69.0,774.00,1.4
2017-04-22,23:30:00,DRY,6.23,5.37,68.7,774.00,1.7
2017-04-22,23:35:00,DRY,6.70,5.35,69.0,774.00,1.6
2017-04-22,23:40:00,DRY,4.97,5.37,69.0,774.00,1.3
2017-04-22,23:45:00,DRY,6.35,5.30,69.0,774.00,1.4
2017-04-22,23:50:00,DRY,5.23,5.40,68.7,774.00,1.1
2017-04-22,23:55:00,DRY,4.95,5.35,69.0,774.00,1.1
2017-04-23,00:00:00,DRY,5.70,5.37,69.0,774.00,1.0
2017-04-23,00:05:00,DRY,5.85,5.40,69.0,774.00,1.1
2017-04-23,00:10:00,DRY,5.10,5.37,69.0,774.00,1.3
2017-04-23,00:15:00,DRY,6.80,5.40,69.0,774.00,1.2
2017-04-23,00:20:00,DRY,6.17,5.43,69.0,774.00,1.7
2017-04-23,00:25:00,DRY,5.80,5.40,69.0,774.00,1.2
2017-04-23,00:30:00,DRY,5.80,5.37,69.0,774.00,1.3
2017-04-23,00:35:00,DRY,5.10,5.40,69.0,774.00,1.2
2017-04-23,00:40:00,DRY,4.90,5.37,68.3,774.00,2.0
2017-04-23,00:45:00,DRY,5.05,5.35,68.5,774.00,1.4
2017-04-23,00:50:00,DRY,5.77,5.20,69.3,774.00,1.2
2017-04-23,00:55:00,DRY,4.40,5.15,70.0,773.50,1.0
2017-04-23,01:00:00,DRY,4.67,5.00,70.0,773.33,1.5
2017-04-23,01:05:00,DRY,6.45,5.00,70.0,773.00,1.1
2017-04-23,01:10:00,DRY,4.27,4.77,71.3,773.00,1.8
2017-04-23,01:15:00,DRY,5.45,4.75,72.0,773.00,1.2
2017-04-23,01:20:00,DRY,6.73,5.00,71.0,773.00,1.2
2017-04-23,01:25:00,DRY,6.30,5.05,70.0,773.00,1.1
2017-04-23,01:30:00,DRY,5.87,4.90,69.7,773.00,1.3
2017-04-23,01:35:00,DRY,5.50,4.60,71.0,773.00,1.2
2017-04-23,01:40:00,DRY,4.43,4.67,70.7,773.00,1.2
2017-04-23,01:45:00,DRY,4.75,4.75,69.5,773.00,0.7
2017-04-23,01:50:00,DRY,3.93,4.90,70.7,773.00,1.0
2017-04-23,01:55:00,DRY,4.90,4.95,69.5,773.00,1.1
2017-04-23,02:00:00,DRY,5.90,4.97,70.0,773.00,1.1
2017-04-23,02:05:00,DRY,6.60,4.95,69.5,773.00,0.4
2017-04-23,02:10:00,DRY,5.20,4.93,69.7,773.00,1.1
2017-04-23,02:15:00,DRY,5.45,4.90,69.5,773.00,1.1
2017-04-23,02:20:00,DRY,5.43,4.80,70.7,773.00,1.4
2017-04-23,02:25:00,DRY,5.10,4.75,70.0,773.00,0.9
2017-04-23,02:30:00,DRY,6.30,4.80,71.0,773.00,1.1
2017-04-23,02:35:00,DRY,5.10,4.85,71.0,773.00,1.0
2017-04-23,02:40:00,DRY,4.90,4.73,71.3,773.00,1.3
2017-04-23,02:45:00,DRY,4.80,4.75,72.0,773.00,1.2
2017-04-23,02:50:00,DRY,5.57,4.80,72.0,773.00,1.1
2017-04-23,02:55:00,DRY,5.35,4.80,71.5,773.00,1.4
2017-04-23,03:00:00,DRY,5.97,4.73,72.0,773.00,1.3
2017-04-23,03:05:00,DRY,6.45,4.75,72.0,773.00,1.4
2017-04-23,03:10:00,DRY,4.73,4.63,72.7,773.00,1.9
2017-04-23,03:15:00,DRY,5.60,4.50,71.5,773.00,2.0
2017-04-23,03:20:00,DRY,5.43,4.50,72.3,772.33,1.5
2017-04-23,03:25:00,DRY,5.00,4.45,71.0,772.00,0.9
2017-04-23,03:30:00,DRY,4.37,4.30,71.3,772.33,0.8
2017-04-23,03:35:00,DRY,5.90,4.20,71.0,772.00,1.3
2017-04-23,03:40:00,DRY,6.00,4.17,70.7,772.00,0.8
2017-04-23,03:45:00,DRY,5.10,4.10,70.0,772.00,1.0
2017-04-23,03:50:00,DRY,5.03,4.10,71.0,772.00,1.5
2017-04-23,03:55:00,DRY,6.55,4.20,71.0,772.00,1.0
2017-04-23,04:00:00,DRY,5.17,4.17,70.7,772.00,1.6
2017-04-23,04:05:00,DRY,5.10,4.10,70.0,772.00,1.1
2017-04-23,04:10:00,DRY,5.03,4.17,71.0,772.00,1.1
2017-04-23,04:15:00,DRY,4.25,4.05,71.0,772.00,0.9
2017-04-23,04:20:00,DRY,5.20,4.03,72.0,772.00,1.1
2017-04-23,04:25:00,DRY,3.30,4.10,71.5,772.00,0.8
2017-04-23,04:30:00,DRY,4.80,4.03,73.0,772.00,1.3
2017-04-23,04:35:00,DRY,4.00,4.10,73.5,772.00,1.0
2017-04-23,04:40:00,DRY,5.20,4.17,74.3,772.00,1.4
2017-04-23,04:45:00,DRY,5.10,4.20,75.5,772.00,1.2
2017-04-23,04:50:00,DRY,4.83,4.07,73.7,772.00,1.4
2017-04-23,04:55:00,DRY,5.75,4.00,74.5,772.00,1.2
2017-04-23,05:00:00,DRY,6.00,4.00,74.7,772.00,1.1
2017-04-23,05:05:00,DRY,5.60,4.00,75.0,772.00,1.4
2017-04-23,05:10:00,DRY,5.30,4.00,76.0,772.00,1.2
2017-04-23,05:15:00,DRY,4.85,3.95,76.5,772.00,1.2
2017-04-23,05:20:00,DRY,3.97,3.83,78.3,772.00,1.3
2017-04-23,05:25:00,DRY,4.80,3.90,78.0,772.00,1.6
2017-04-23,05:30:00,DRY,4.37,3.97,78.0,772.00,1.2
2017-04-23,05:35:00,DRY,5.65,4.15,77.0,772.00,1.6
2017-04-23,05:40:00,DRY,5.07,4.13,77.3,772.00,1.4
2017-04-23,05:45:00,DRY,4.65,4.35,75.0,772.00,0.8
2017-04-23,05:50:00,DRY,5.13,4.63,73.0,772.00,1.1
2017-04-23,05:55:00,DRY,4.95,4.70,71.5,772.00,2.0
2017-04-23,06:00:00,DRY,5.13,4.77,70.3,772.00,1.0
2017-04-23,06:05:00,DRY,5.45,4.95,68.5,772.00,0.7
2017-04-23,06:10:00,DRY,5.83,5.03,68.0,772.00,1.1
2017-04-23,06:15:00,DRY,5.45,4.90,71.0,772.00,1.2
2017-04-23,06:20:00,DRY,5.23,4.57,73.0,772.00,1.9
2017-04-23,06:25:00,DRY,4.10,4.60,71.5,772.00,1.8
2017-04-23,06:30:00,DRY,5.17,4.73,70.3,772.00,2.4
2017-04-23,06:35:00,DRY,6.70,4.85,70.0,772.00,4.1
2017-04-23,06:40:00,DRY,6.43,4.87,70.0,772.00,7.4
2017-04-23,06:45:00,DRY,6.30,5.05,69.0,772.00,19.0
2017-04-23,06:50:00,DRY,5.70,5.10,68.3,772.00,35.5
2017-04-23,06:55:00,DRY,5.85,5.20,67.5,772.00,53.5
2017-04-23,07:00:00,DRY,5.90,5.20,70.0,772.00,75.3
2017-04-23,07:05:00,DRY,4.10,5.20,70.0,772.50,96.3
2017-04-23,07:10:00,DRY,5.20,5.23,68.7,772.00,114.2
2017-04-23,07:15:00,DRY,5.35,5.40,69.0,773.00,132.1
2017-04-23,07:20:00,DRY,4.87,5.43,68.0,773.00,151.2
2017-04-23,07:25:00,DRY,4.35,5.50,68.0,773.00,170.7
2017-04-23,07:30:00,DRY,4.83,5.60,66.3,773.00,190.9
2017-04-23,07:35:00,DRY,5.00,5.65,66.0,773.00,210.8
2017-04-23,07:40:00,DRY,4.30,5.73,67.3,773.00,232.3
2017-04-23,07:45:00,DRY,4.00,5.90,66.0,773.00,252.7
2017-04-23,07:50:00,DRY,3.70,5.97,65.7,773.00,273.1
2017-04-23,07:55:00,DRY,4.70,6.05,66.0,773.00,294.8
2017-04-23,08:00:00,DRY,4.77,6.13,65.0,773.00,315.4
2017-04-23,08:05:00,DRY,4.90,6.40,64.5,773.00,336.4
2017-04-23,08:10:00,DRY,4.90,6.37,63.7,773.00,357.3
2017-04-23,08:15:00,DRY,4.55,6.25,63.5,773.00,378.1
2017-04-23,08:20:00,DRY,4.57,6.43,64.3,773.00,398.6
2017-04-23,08:25:00,DRY,4.25,6.80,62.0,773.00,418.6
2017-04-23,08:30:00,DRY,4.67,6.77,62.0,773.00,440.0
2017-04-23,08:35:00,DRY,4.30,6.90,62.5,773.00,460.3
2017-04-23,08:40:00,DRY,4.20,7.13,60.0,773.00,480.1
2017-04-23,08:45:00,DRY,4.95,7.15,60.0,773.00,499.8
2017-04-23,08:50:00,DRY,4.40,7.20,60.7,773.00,519.1
2017-04-23,08:55:00,DRY,4.10,7.60,59.0,773.00,538.5
2017-04-23,09:00:00,DRY,4.47,7.33,59.3,773.00,557.2
2017-04-23,09:05:00,DRY,4.15,7.40,61.0,773.00,577.1
2017-04-23,09:10:00,DRY,3.73,7.43,61.7,773.00,596.1
2017-04-23,09:15:00,DRY,3.05,7.30,60.5,773.00,614.7
2017-04-23,09:20:00,DRY,4.00,7.77,60.3,773.00,631.6
2017-04-23,09:25:00,DRY,3.55,8.10,56.5,773.00,650.0
2017-04-23,09:30:00,DRY,4.27,7.93,58.3,773.00,667.2
2017-04-23,09:35:00,DRY,4.45,7.55,60.0,773.00,685.0
2017-04-23,09:40:00,DRY,3.47,7.97,62.7,773.00,701.4
2017-04-23,09:45:00,DRY,3.10,8.20,59.0,773.00,718.0
2017-04-23,09:50:00,DRY,3.67,8.17,58.0,773.00,734.8
2017-04-23,09:55:00,DRY,3.40,8.15,56.0,773.00,750.8
2017-04-23,10:00:00,DRY,4.33,8.37,57.3,773.00,766.9
2017-04-23,10:05:00,DRY,4.25,8.35,64.5,773.00,782.4
2017-04-23,10:10:00,DRY,3.33,8.23,65.7,773.00,798.4
2017-04-23,10:15:00,DRY,3.80,8.05,58.5,773.00,813.4
2017-04-23,10:20:00,DRY,3.10,8.40,60.0,773.00,831.1
2017-04-23,10:25:00,DRY,2.50,8.15,64.0,773.00,845.4
2017-04-23,10:30:00,DRY,2.80,8.10,58.3,773.00,864.7
2017-04-23,10:35:00,DRY,2.30,8.60,57.0,773.00,873.1
2017-04-23,10:40:00,DRY,3.33,8.27,60.3,773.00,880.4
2017-04-23,10:45:00,DRY,3.45,8.10,61.0,773.00,892.4
2017-04-23,10:50:00,DRY,3.53,8.57,56.3,773.00,903.8
2017-04-23,10:55:00,DRY,3.95,9.05,55.5,773.00,916.3
2017-04-23,11:00:00,DRY,4.60,8.63,60.7,773.00,930.3
2017-04-23,11:05:00,DRY,4.20,8.40,66.0,773.00,905.7
2017-04-23,11:10:00,DRY,3.47,8.47,58.7,773.00,952.5
2017-04-23,11:15:00,DRY,3.80,8.10,56.5,773.00,966.5
2017-04-23,11:20:00,DRY,3.53,8.43,60.7,773.00,979.8
2017-04-23,11:25:00,DRY,3.80,8.70,60.0,773.00,998.5
2017-04-23,11:30:00,DRY,3.17,8.50,65.3,773.00,989.8
2017-04-23,11:35:00,DRY,3.10,8.20,65.0,773.00,1001.3
2017-04-23,11:40:00,DRY,2.73,8.83,56.3,773.33,1027.1
2017-04-23,11:45:00,DRY,3.25,8.40,58.5,773.00,1020.6
2017-04-23,11:50:00,DRY,2.70,8.57,61.3,773.00,1021.5
2017-04-23,11:55:00,DRY,4.00,9.15,56.0,773.00,1028.7
2017-04-23,12:00:00,DRY,5.23,8.83,59.7,773.00,1035.6
2017-04-23,12:05:00,DRY,4.20,8.45,67.0,773.00,967.7
2017-04-23,12:10:00,DRY,3.97,8.33,77.0,773.00,1042.0
2017-04-23,12:15:00,DRY,3.80,8.60,74.5,773.00,1096.5
2017-04-23,12:20:00,DRY,3.67,8.77,71.0,773.00,1057.0
2017-04-23,12:25:00,DRY,3.75,8.60,71.5,773.00,1102.4
2017-04-23,12:30:00,DRY,3.20,8.90,69.0,773.00,1187.2
2017-04-23,12:35:00,DRY,4.10,9.10,75.5,773.00,1112.3
2017-04-23,12:40:00,DRY,3.53,9.23,70.3,773.00,1182.7
2017-04-23,12:45:00,DRY,4.15,8.60,79.5,773.00,761.1
2017-04-23,12:50:00,DRY,3.03,9.20,70.7,773.00,1091.7
2017-04-23,12:55:00,DRY,3.15,9.40,72.5,773.00,1154.8
2017-04-23,13:00:00,DRY,2.93,9.47,68.3,773.00,1052.2
2017-04-23,13:05:00,DRY,4.05,9.35,64.0,773.00,1101.7
2017-04-23,13:10:00,DRY,4.17,8.87,72.3,773.00,1046.2
2017-04-23,13:15:00,DRY,4.05,8.95,60.0,773.00,1083.8
2017-04-23,13:20:00,DRY,3.90,9.17,62.7,773.00,1074.5
2017-04-23,13:25:00,DRY,4.70,9.90,61.5,773.00,1089.8
2017-04-23,13:30:00,DRY,3.60,9.60,63.0,773.00,1099.3
2017-04-23,13:35:00,DRY,4.40,9.90,65.0,773.00,1152.4
2017-04-23,13:40:00,DRY,3.67,9.03,65.7,773.00,1110.5
2017-04-23,13:45:00,DRY,3.55,9.80,59.5,773.00,1087.2
2017-04-23,13:50:00,DRY,1.97,9.77,62.0,773.00,1088.8
2017-04-23,13:55:00,DRY,2.65,10.00,61.5,773.00,1074.5
2017-04-23,14:00:00,DRY,2.93,10.60,51.7,773.00,1066.8
2017-04-23,14:05:00,DRY,2.95,10.80,56.0,773.00,1077.5
2017-04-23,14:10:00,DRY,3.23,10.23,52.7,773.00,1054.2
2017-04-23,14:15:00,DRY,2.75,10.75,58.0,773.00,1085.5
2017-04-23,14:20:00,DRY,3.80,10.73,56.0,773.00,1059.3
2017-04-23,14:25:00,DRY,4.00,10.80,56.5,773.00,849.1
2017-04-23,14:30:00,DRY,3.83,10.27,59.0,773.00,1047.4
2017-04-23,14:35:00,DRY,4.00,9.60,66.5,773.00,899.9
2017-04-23,14:40:00,DRY,2.57,9.93,59.7,773.00,918.6
2017-04-23,14:45:00,DRY,2.55,9.85,54.0,773.00,1008.9
2017-04-23,14:50:00,DRY,3.30,9.37,56.0,773.00,992.2
2017-04-23,14:55:00,DRY,3.30,10.30,55.0,773.00,976.9
2017-04-23,15:00:00,DRY,4.10,10.67,55.3,773.00,968.0
2017-04-23,15:05:00,DRY,4.10,10.55,55.5,773.00,954.0
2017-04-23,15:10:00,DRY,4.07,10.57,53.0,773.00,955.8
2017-04-23,15:15:00,DRY,3.55,10.55,60.5,773.00,946.9
2017-04-23,15:20:00,DRY,4.30,10.07,64.7,773.00,956.2
2017-04-23,15:25:00,DRY,3.10,9.90,62.0,773.00,877.6
2017-04-23,15:30:00,DRY,3.67,10.27,57.0,773.00,895.5
2017-04-23,15:35:00,DRY,3.90,10.35,54.0,773.00,883.9
2017-04-23,15:40:00,DRY,3.00,10.33,57.7,773.00,871.8
2017-04-23,15:45:00,DRY,3.25,10.25,53.0,773.00,853.5
2017-04-23,15:50:00,DRY,3.17,10.37,54.7,773.00,840.7
2017-04-23,15:55:00,DRY,4.70,10.70,53.0,773.00,828.3
2017-04-23,16:00:00,DRY,3.73,10.40,60.7,773.00,814.6
2017-04-23,16:05:00,DRY,3.80,9.90,57.0,773.00,731.3
2017-04-23,16:10:00,DRY,3.67,9.27,59.7,773.00,790.9
2017-04-23,16:15:00,DRY,4.15,10.10,60.0,772.00,768.0
2017-04-23,16:20:00,DRY,3.33,9.40,51.3,772.67,749.2
2017-04-23,16:25:00,DRY,2.80,9.80,58.0,772.50,735.1
2017-04-23,16:30:00,DRY,4.53,9.80,58.3,772.00,717.7
2017-04-23,16:35:00,DRY,4.90,9.70,55.5,772.00,701.9
2017-04-23,16:40:00,DRY,3.53,10.20,62.0,772.33,684.8
2017-04-23,16:45:00,DRY,4.50,9.90,55.0,772.00,666.8
2017-04-23,16:50:00,DRY,4.37,9.67,50.0,772.00,647.8
2017-04-23,16:55:00,DRY,4.60,9.95,55.0,772.00,629.0
2017-04-23,17:00:00,DRY,4.43,9.73,53.7,772.00,610.6
2017-04-23,17:05:00,DRY,4.25,9.70,59.0,772.00,592.7
2017-04-23,17:10:00,DRY,4.10,9.97,59.0,772.00,573.5